Flight Track Log - Related Links

Times and Time Zones

All times are in EDT time to prevent confusion due to time zone crossing. See the SKW6306 flight status page for this flight to view local times or setup timezone preferences in your user account.

Time Position Orientation Groundspeed Altitude Reporting Facility
EDT Latitude Longitude Course Direction KTS MPH feet Rate Location/Type
Fri 01:56:46 PM 39.9333 -104.7000 346° North 207 238 7,200  Level Denver TRACON
Fri 01:57:46 PM 40.0000 -104.6833 11° North 226 260 9,500 1,895 Climbing Denver TRACON
Fri 01:58:40 PM 40.0500 -104.6667 14° North 258 297 10,800 1,458 Climbing Denver TRACON
Fri 01:59:00 PM 40.2614 -104.8000 347° North  Level FlightAware Approximate
Fri 02:00:00 PM 40.3646 -104.8326 346° North  Level FlightAware Approximate
Fri 02:00:10 PM 40.1633 -104.6861 353° North 279 321 13,000  Level Denver Center
Fri 02:01:00 PM 40.4674 -104.8669 346° North  Level FlightAware Approximate
Fri 02:01:12 PM 40.2522 -104.7103 348° North 297 342 14,700  Level Denver Center
Fri 02:02:14 PM 40.3394 -104.7331 349° North 316 364 16,200 1,403 Climbing Denver Center
Fri 02:03:16 PM 40.4342 -104.7583 349° North 325 374 17,600 1,258 Climbing Denver Center
Fri 02:04:18 PM 40.5244 -104.7836 348° North 329 379 18,800 1,258 Climbing Denver Center
Fri 02:05:20 PM 40.6169 -104.8081 349° North 340 391 20,200 1,355 Climbing Denver Center
Fri 02:06:22 PM 40.7156 -104.8325 349° North 334 384 21,600 1,161 Climbing Denver Center
Fri 02:07:24 PM 40.8125 -104.8531 351° North 330 380 22,600 1,016 Climbing Denver Center
Fri 02:08:26 PM 40.9050 -104.8711 352° North 345 397 23,700 1,065 Climbing Denver Center
Fri 02:09:28 PM 41.0150 -104.8944 351° North 354 407 24,800 920 Climbing Denver Center
Fri 02:10:43 PM 41.1244 -104.9186 351° North 356 410 25,800 832 Climbing Denver Center
Fri 02:11:45 PM 41.2347 -104.9406 351° North 359 413 26,700 706 Climbing Denver Center
Fri 02:12:59 PM 41.3322 -104.9667 349° North 368 423 27,400 701 Climbing Denver Center
Fri 02:14:02 PM 41.4628 -104.9931 351° North 370 426 28,300 768 Climbing Denver Center
Fri 02:15:04 PM 41.5611 -105.0139 351° North 373 429 29,000 629 Climbing Denver Center
Fri 02:16:06 PM 41.6783 -105.0386 351° North 380 437 29,600 581 Climbing Denver Center
Fri 02:17:08 PM 41.7794 -105.0617 350° North 384 442 30,200 484 Climbing Denver Center
Fri 02:18:10 PM 41.8969 -105.0881 351° North 384 442 30,600 532 Climbing Denver Center
Fri 02:19:12 PM 41.9994 -105.1108 351° North 388 447 31,300 677 Climbing Denver Center
Fri 02:20:14 PM 42.1181 -105.1358 351° North 384 442 32,000 339 Climbing Denver Center
Fri 02:21:16 PM 42.2217 -105.1594 350° North 390 449 32,000  Level Denver Center
Fri 02:22:18 PM 42.3453 -105.1864 351° North 400 460 32,000  Level Denver Center
Fri 02:23:20 PM 42.4350 -105.2078 350° North 403 464 32,000  Level Denver Center
Fri 02:24:22 PM 42.5814 -105.2386 351° North 413 475 32,000  Level Denver Center
Fri 02:25:24 PM 42.6911 -105.2644 350° North 414 476 32,000  Level Denver Center
Fri 02:26:26 PM 42.8006 -105.2892 351° North 414 476 32,000  Level Denver Center
Fri 02:27:28 PM 42.9278 -105.3167 351° North 413 475 32,000  Level Denver Center
Fri 02:28:31 PM 43.0353 -105.3406 351° North 409 471 32,000  Level Denver Center
Fri 02:29:33 PM 43.1619 -105.3689 351° North 410 472 32,000  Level Denver Center
Fri 02:30:35 PM 43.2689 -105.3936 350° North 408 470 32,000  Level Denver Center
Fri 02:31:37 PM 43.3942 -105.4219 351° North 408 470 32,000  Level Denver Center
Fri 02:32:39 PM 43.5017 -105.4464 351° North 408 470 32,000  Level Denver Center
Fri 02:33:41 PM 43.6269 -105.4767 350° North 408 470 32,000  Level Denver Center
Fri 02:34:43 PM 43.7339 -105.5008 351° North 408 470 32,000  Level Denver Center
Fri 02:35:45 PM 43.8589 -105.5303 350° North 407 468 32,000  Level Denver Center
Fri 02:36:47 PM 43.9664 -105.5547 351° North 407 468 32,000  Level Denver Center
Fri 02:37:49 PM 44.0725 -105.5792 351° North 406 467 32,000  Level Denver Center
Fri 02:38:51 PM 44.1969 -105.6075 351° North 406 467 32,000  Level Denver Center
Fri 02:39:53 PM 44.3036 -105.6300 351° North 404 465 32,000  Level Denver Center
Fri 02:40:27 PM 44.3750 -105.6481 350° North 404 465 32,000  Level Salt Lake Center
Fri 02:41:29 PM 44.4792 -105.6772 349° North 402 463 32,000  Level Salt Lake Center
Fri 02:42:31 PM 44.6025 -105.7056 351° North 402 463 32,000  Level Salt Lake Center
Fri 02:43:33 PM 44.7086 -105.7308 350° North 403 464 32,000  Level Salt Lake Center
Fri 02:45:04 PM 44.8836 -105.7731 350° North 402 463 32,000  Level Denver Center
Fri 02:45:37 PM 44.9381 -105.7847 351° North 402 463 32,000  Level Salt Lake Center
Fri 02:46:39 PM 45.0622 -105.8164 350° North 405 466 32,000  Level Salt Lake Center
Fri 02:48:10 PM 45.2206 -105.8508 351° North 403 464 32,000  Level Denver Center
Fri 02:48:43 PM 45.2906 -105.8703 349° North 402 463 32,000  Level Salt Lake Center
Fri 02:49:45 PM 45.3989 -105.8997 349° North 400 460 32,000  Level Salt Lake Center
Fri 02:50:47 PM 45.5083 -105.9239 351° North 400 460 32,000  Level Salt Lake Center
Fri 02:51:49 PM 45.6175 -105.9519 350° North 399 459 32,000  Level Salt Lake Center
Fri 02:52:51 PM 45.7269 -105.9783 350° North 399 459 32,000  Level Salt Lake Center
Fri 02:53:53 PM 45.8342 -106.0061 350° North 396 456 32,000  Level Salt Lake Center
Fri 02:54:55 PM 45.9419 -106.0294 351° North 394 453 32,000  Level Salt Lake Center
Fri 02:55:57 PM 46.0719 -106.0600 351° North 394 453 32,000  Level Salt Lake Center
Fri 02:56:59 PM 46.1806 -106.0875 350° North 394 453 32,000  Level Salt Lake Center
Fri 02:58:01 PM 46.2889 -106.1156 350° North 395 455 32,000  Level Salt Lake Center
Fri 02:59:03 PM 46.3981 -106.1439 350° North 396 456 32,000  Level Salt Lake Center
Fri 03:00:05 PM 46.5081 -106.1714 350° North 398 458 32,000  Level Salt Lake Center
Fri 03:01:07 PM 46.6167 -106.2003 350° North 398 458 32,000  Level Salt Lake Center
Fri 03:02:09 PM 46.7469 -106.2336 350° North 397 457 32,000  Level Salt Lake Center
Fri 03:03:11 PM 46.8583 -106.2644 349° North 400 460 32,000  Level Salt Lake Center
Fri 03:04:13 PM 46.9686 -106.2931 350° North 401 461 32,000  Level Salt Lake Center
Fri 03:05:15 PM 47.0797 -106.3225 350° North 403 464 32,000  Level Salt Lake Center
Fri 03:06:17 PM 47.1911 -106.3508 350° North 404 465 32,000  Level Salt Lake Center
Fri 03:07:20 PM 47.3039 -106.3822 349° North 406 467 32,000  Level Salt Lake Center
Fri 03:08:22 PM 47.4369 -106.4169 350° North 407 468 32,000  Level Salt Lake Center
Fri 03:09:24 PM 47.5467 -106.4458 350° North 403 464 32,000  Level Salt Lake Center
Fri 03:10:26 PM 47.6569 -106.4761 350° North 403 464 32,000  Level Salt Lake Center
Fri 03:11:28 PM 47.7669 -106.5044 350° North 402 463 32,000  Level Salt Lake Center
Fri 03:12:30 PM 47.8769 -106.5347 350° North 403 464 32,000  Level Salt Lake Center
Fri 03:13:32 PM 47.9883 -106.5642 350° North 403 464 32,000  Level Salt Lake Center
Fri 03:14:34 PM 48.1189 -106.5994 350° North 401 461 32,000  Level Salt Lake Center
Fri 03:15:37 PM 48.2281 -106.6322 349° North 400 460 32,000  Level Salt Lake Center
Fri 03:16:38 PM 48.3306 -106.6836 342° North 396 456 32,000  Level Salt Lake Center
Fri 03:17:40 PM 48.4339 -106.7339 342° North 392 451 32,000  Level Salt Lake Center
Fri 03:18:42 PM 48.5372 -106.7850 342° North 392 451 32,000  Level Salt Lake Center
Fri 03:19:44 PM 48.6392 -106.8356 342° North 388 447 32,000  Level Salt Lake Center
Fri 03:20:46 PM 48.7628 -106.8981 342° North 390 449 32,000  Level Salt Lake Center
Fri 03:21:48 PM 48.8669 -106.9503 342° North 392 451 32,000  Level Salt Lake Center
Fri 03:22:43 PM 48.9500 -107.0167 332° Northwest 390 449 32,000  Level Winnipeg Center
Fri 03:23:43 PM 49.0500 -107.0667 342° North 390 449 32,000  Level Winnipeg Center
Fri 03:24:43 PM 49.1500 -107.1333 336° Northwest 390 449 32,000  Level Winnipeg Center
Fri 03:25:43 PM 49.2500 -107.1833 342° North 390 449 32,000  Level Winnipeg Center
Fri 03:26:43 PM 49.3667 -107.2333 344° North 390 449 32,000  Level Winnipeg Center
Fri 03:27:42 PM 49.4667 -107.2833 342° North 400 460 32,000  Level Winnipeg Center
Fri 03:28:42 PM 49.5500 -107.3333 339° North 390 449 32,000  Level Winnipeg Center
Fri 03:29:42 PM 49.6667 -107.4000 340° North 390 449 32,000  Level Winnipeg Center
Fri 03:30:42 PM 49.7667 -107.4500 342° North 390 449 32,000  Level Winnipeg Center
Fri 03:31:42 PM 49.8833 -107.5000 345° North 390 449 32,000  Level Winnipeg Center
Fri 03:32:42 PM 49.9667 -107.5500 339° North 390 449 32,000  Level Winnipeg Center
Fri 03:33:42 PM 50.0667 -107.6000 342° North 390 449 32,000  Level Winnipeg Center
Fri 03:34:42 PM 50.1667 -107.6667 337° Northwest 380 437 32,000  Level Winnipeg Center
Fri 03:35:42 PM 50.2833 -107.7000 350° North 380 437 32,000  Level Winnipeg Center
Fri 03:36:42 PM 50.3833 -107.7000 360° North 400 460 32,000  Level Winnipeg Center
Fri 03:37:42 PM 50.5000 -107.7000 360° North 400 460 32,000  Level Winnipeg Center
Fri 03:38:42 PM 50.6000 -107.7000 360° North 400 460 32,000  Level Winnipeg Center
Fri 03:39:42 PM 50.7167 -107.6667 10° North 400 460 32,000 -500 Level Winnipeg Center
Fri 03:40:42 PM 50.8333 -107.6167 15° North 420 483 31,000 -1,450 Descending Winnipeg Center
Fri 03:41:42 PM 50.9333 -107.5333 28° Northeast 440 506 29,100 -2,000 Descending Winnipeg Center
Fri 03:42:42 PM 51.0500 -107.4333 28° Northeast 440 506 27,000 -2,000 Descending Winnipeg Center
Fri 03:43:42 PM 51.1500 -107.3500 28° Northeast 440 506 25,100 -2,050 Descending Winnipeg Center
Fri 03:44:42 PM 51.2667 -107.2667 24° Northeast 430 495 22,900 -2,067 Descending Winnipeg Center
Fri 03:46:00 PM 51.3931 -107.1888 21° North  Level Estimated
Fri 03:46:42 PM 51.4667 -107.0833 21° North 410 472 18,900  Level Winnipeg Center
Fri 03:47:42 PM 51.5500 -107.0000 32° Northeast 400 460 17,200 -1,850 Descending Winnipeg Center
Fri 03:48:42 PM 51.6500 -106.9167 27° Northeast 370 426 15,200 -2,050 Descending Winnipeg Center
Fri 03:49:42 PM 51.7167 -106.8500 32° Northeast 340 391 13,100 -1,950 Descending Winnipeg Center
Fri 03:50:42 PM 51.8167 -106.7833 22° Northeast 320 368 11,300 -1,750 Descending Winnipeg Center
Fri 03:51:42 PM 51.8667 -106.6833 51° Northeast 290 334 9,600 -1,900 Descending Winnipeg Center
Fri 03:52:42 PM 51.9333 -106.6167 32° Northeast 280 322 7,500 -2,050 Descending Winnipeg Center
Fri 03:53:42 PM 52.0000 -106.5500 32° Northeast 280 322 5,500 -1,800 Descending Winnipeg Center
Fri 03:54:42 PM 52.0500 -106.4833 39° Northeast 270 311 3,900 -900 Descending Winnipeg Center
Fri 03:55:42 PM 52.1000 -106.4667 12° North 220 253 3,700 -200 Descending Winnipeg Center

Login

Don't have an account? Register now (free) for customized features, flight alerts, and more!